TimeCST,TemperatureF,Dew PointF,Humidity,Sea Level PressureIn,VisibilityMPH,Wind Direction,Wind SpeedMPH,Gust SpeedMPH,PrecipitationIn,Events,Conditions,WindDirDegrees,DateUTC
12:53 AM,50.0,39.9,68,30.17,10.0,Calm,Calm,-,N/A,,Clear,0,2012-11-08 06:53:00
1:53 AM,48.9,39.9,71,30.18,10.0,Calm,Calm,-,N/A,,Clear,0,2012-11-08 07:53:00
2:53 AM,46.9,39.0,74,30.17,10.0,Calm,Calm,-,N/A,,Clear,0,2012-11-08 08:53:00
3:53 AM,46.0,39.9,79,30.19,10.0,Calm,Calm,-,N/A,,Clear,0,2012-11-08 09:53:00
4:53 AM,45.0,39.0,80,30.20,10.0,Calm,Calm,-,N/A,,Clear,0,2012-11-08 10:53:00
5:53 AM,45.0,39.0,80,30.21,10.0,Calm,Calm,-,N/A,,Clear,0,2012-11-08 11:53:00
6:53 AM,45.0,39.0,80,30.23,10.0,Calm,Calm,-,N/A,,Clear,0,2012-11-08 12:53:00
7:53 AM,48.9,39.9,71,30.25,10.0,Variable,4.6,-,N/A,,Clear,0,2012-11-08 13:53:00
8:53 AM,54.0,42.1,64,30.27,10.0,Variable,3.5,-,N/A,,Clear,0,2012-11-08 14:53:00
9:53 AM,59.0,39.9,49,30.27,10.0,ENE,5.8,-,N/A,,Clear,70,2012-11-08 15:53:00
10:53 AM,62.1,39.9,44,30.26,10.0,Calm,Calm,-,N/A,,Clear,0,2012-11-08 16:53:00
11:53 AM,64.0,39.9,41,30.23,10.0,Calm,Calm,-,N/A,,Clear,0,2012-11-08 17:53:00
12:53 PM,68.0,37.0,32,30.20,10.0,Calm,Calm,-,N/A,,Clear,0,2012-11-08 18:53:00
1:53 PM,69.1,39.9,35,30.18,10.0,Variable,4.6,-,N/A,,Clear,0,2012-11-08 19:53:00
2:53 PM,70.0,39.0,32,30.17,10.0,Calm,Calm,-,N/A,,Clear,0,2012-11-08 20:53:00
3:53 PM,69.1,39.0,33,30.17,10.0,Calm,Calm,-,N/A,,Clear,0,2012-11-08 21:53:00
4:53 PM,66.0,44.1,45,30.17,10.0,Calm,Calm,-,N/A,,Clear,0,2012-11-08 22:53:00
5:53 PM,60.1,52.0,75,30.17,10.0,Calm,Calm,-,N/A,,Clear,0,2012-11-08 23:53:00
6:53 PM,55.9,48.9,77,30.18,10.0,Calm,Calm,-,N/A,,Clear,0,2012-11-09 00:53:00
7:53 PM,55.0,50.0,83,30.19,10.0,Calm,Calm,-,N/A,,Clear,0,2012-11-09 01:53:00
8:53 PM,52.0,48.0,86,30.20,10.0,Calm,Calm,-,N/A,,Clear,0,2012-11-09 02:53:00
9:53 PM,53.1,48.0,83,30.21,10.0,Calm,Calm,-,N/A,,Clear,0,2012-11-09 03:53:00
10:53 PM,53.1,45.0,74,30.19,10.0,Calm,Calm,-,N/A,,Clear,0,2012-11-09 04:53:00
11:53 PM,52.0,46.0,80,30.19,10.0,Calm,Calm,-,N/A,,Clear,0,2012-11-09 05:53:00